[[{"header":{"parameterUnit":"m.s-1","parameterCategory":1,"la1":30.2992,"la2":30.254,"lo1":-89.0895,"lo2":-89.0443,"dy":0.0025,"dx":0.0025,"nx":19,"ny":19,"refTime":"2026-05-04T03:00:00:Z","depth":0,"parameterNumber":2,"parameterNumberName":"U-component_of_WINDS"},"data":[0,0,0,1.2052,1.2053,1.2127,1.2128,1.2219,1.222,0,0,0,0,0,0,0,0,0,0,0,1.2025,1.2026,1.2051,1.2053,1.2127,1.2128,1.2219,1.222,0,0,0,0,0,0,0,0,0,0,0,1.2025,1.2026,1.2026,1.2053,1.2127,1.2128,1.2218,1.2164,0,0,0,0,0,0,0,0,0,0,1.2093,1.2064,1.2025,1.2026,1.2054,1.2127,1.2128,1.2162,1.2168,1.2183,0,1.2194,0,1.2208,1.2225,1.2226,0,0,0,1.2057,1.2059,1.2083,1.2026,1.2054,1.2127,1.2095,1.2165,1.2172,1.2191,1.2195,1.2199,1.221,1.2226,1.2226,1.23,1.23,0,0,1.2053,1.2037,1.2078,1.2087,1.2073,1.2092,1.2097,1.2169,1.2174,1.2195,1.2201,1.2211,1.2226,1.2227,1.23,1.23,0,0,0,1.2038,1.2034,1.2056,1.2083,1.2097,1.2095,1.21,1.217,1.2179,1.2202,1.2212,1.2227,1.2228,1.23,1.23,1.2293,0,0,0,1.2036,1.2025,1.2054,1.2045,1.2095,1.2134,1.2099,1.2174,1.2183,1.2212,1.2227,1.2229,1.2299,1.23,1.2293,1.2292,0,0,0,1.2022,1.2024,1.2033,1.2044,1.2075,1.2133,1.2146,1.2176,1.2189,1.2226,1.2229,1.2299,1.23,1.2292,1.2292,1.2307,0,0,0,1.2002,1.2026,1.2033,1.2063,1.2074,1.2128,1.2146,1.2187,1.2218,1.2227,1.2299,1.23,1.2292,1.2292,1.2307,1.2317,1.232,0,0,1.2023,1.2027,1.2047,1.2055,1.2103,1.2118,1.2166,1.221,1.2229,1.2276,1.2278,1.2293,1.2292,1.2307,1.2341,1.2342,0,0,0,1.2048,1.2061,1.2078,1.2106,1.214,1.2169,1.2208,1.2224,1.2265,1.2249,1.2303,1.2303,1.2313,1.2318,1.232,1.233,1.2302,1.2302,1.2302,1.2053,1.2076,1.211,1.2142,1.2169,1.2209,1.2234,1.2264,1.2278,1.2291,1.2305,1.2322,1.2328,1.2329,1.2339,1.2312,1.2312,1.2312,1.2312,1.2086,1.2109,1.2129,1.2168,1.2193,1.2227,1.2268,1.2277,1.2314,1.2313,1.2323,1.232,1.2331,1.2341,1.2312,1.2312,1.2312,1.2312,1.2312,1.2091,1.2106,1.2126,1.2171,1.2203,1.2236,1.227,1.2292,1.2312,1.2322,1.2339,1.234,1.2343,1.2329,1.2329,1.2329,1.2329,1.2329,1.2329,1.2089,1.2112,1.2138,1.2177,1.2199,1.2231,1.2273,1.2296,1.2326,1.234,1.234,1.2354,1.2328,1.232,1.233,1.233,1.233,1.233,1.233,1.2113,1.2111,1.215,1.2173,1.2222,1.2253,1.2281,1.2326,1.2348,1.2365,1.2378,1.2355,1.2361,1.236,1.2354,1.2372,1.2372,1.2372,1.2372,1.2117,1.2123,1.2169,1.2203,1.2239,1.2269,1.2315,1.2349,1.2384,1.24,1.2401,1.2395,1.2393,1.2401,1.2399,1.2394,1.2421,1.2421,1.2421,1.2133,1.2144,1.2178,1.2211,1.2252,1.2287,1.2331,1.2371,1.2411,1.2424,1.2413,1.2411,1.2402,1.2398,1.2409,1.2405,1.2397,0,0]},{"header":{"parameterUnit":"m.s-1","parameterCategory":1,"la1":30.2992,"la2":30.254,"lo1":-89.0895,"lo2":-89.0443,"dy":0.0025,"dx":0.0025,"nx":19,"ny":19,"refTime":"2026-05-04T03:00:00:Z","depth":0,"parameterNumber":3,"parameterNumberName":"V-component_of_WINDS"},"data":[0,0,0,-0.1838,-0.1838,-0.1839,-0.1839,-0.1817,-0.1817,0,0,0,0,0,0,0,0,0,0,0,-0.1823,-0.1822,-0.1838,-0.1838,-0.1839,-0.1839,-0.1817,-0.1817,0,0,0,0,0,0,0,0,0,0,0,-0.1823,-0.1822,-0.1821,-0.1838,-0.1839,-0.1839,-0.1817,-0.1825,0,0,0,0,0,0,0,0,0,0,-0.1827,-0.1798,-0.1822,-0.1821,-0.1838,-0.1839,-0.1839,-0.1826,-0.1824,-0.1806,0,-0.1786,0,-0.1801,-0.1814,-0.1814,0,0,0,-0.1849,-0.1799,-0.1814,-0.1821,-0.1837,-0.1839,-0.1842,-0.1825,-0.1824,-0.1804,-0.1786,-0.1785,-0.18,-0.1813,-0.1813,-0.1673,-0.1672,0,0,-0.1849,-0.1815,-0.1814,-0.1812,-0.181,-0.1842,-0.1842,-0.1825,-0.1802,-0.1786,-0.1785,-0.18,-0.1813,-0.1813,-0.1674,-0.1672,0,0,0,-0.1841,-0.1814,-0.1829,-0.1812,-0.1814,-0.1841,-0.1841,-0.1803,-0.1811,-0.1785,-0.18,-0.1813,-0.1812,-0.1675,-0.1673,-0.1583,0,0,0,-0.1842,-0.181,-0.1829,-0.1808,-0.1814,-0.1808,-0.1819,-0.1812,-0.1811,-0.18,-0.1813,-0.1812,-0.1677,-0.1674,-0.1588,-0.1545,0,0,0,-0.1828,-0.1808,-0.1803,-0.1806,-0.1805,-0.1809,-0.1817,-0.1812,-0.1819,-0.1813,-0.1812,-0.1677,-0.1675,-0.1593,-0.1553,-0.1499,0,0,0,-0.1803,-0.1721,-0.1801,-0.1716,-0.1805,-0.1754,-0.1817,-0.178,-0.1765,-0.1813,-0.1676,-0.1674,-0.1595,-0.1558,-0.1504,-0.1448,-0.1421,0,0,-0.1681,-0.1705,-0.1658,-0.173,-0.1656,-0.1756,-0.1669,-0.1686,-0.1716,-0.1686,-0.1683,-0.1587,-0.1554,-0.15,-0.1283,-0.1262,0,0,0,-0.1608,-0.1574,-0.1562,-0.1546,-0.1559,-0.1566,-0.1601,-0.1608,-0.1584,-0.1694,-0.1554,-0.1535,-0.1505,-0.148,-0.1461,-0.1438,-0.166,-0.1661,-0.1661,-0.1385,-0.1431,-0.1356,-0.1402,-0.1386,-0.1425,-0.1416,-0.1432,-0.148,-0.1447,-0.1437,-0.13,-0.1269,-0.1256,-0.1231,-0.1412,-0.1411,-0.1411,-0.1411,-0.1211,-0.117,-0.124,-0.1193,-0.1241,-0.1202,-0.1237,-0.1273,-0.1244,-0.131,-0.1286,-0.1355,-0.1231,-0.1212,-0.1404,-0.1405,-0.1406,-0.1407,-0.1407,-0.107,-0.1059,-0.107,-0.1054,-0.1037,-0.1087,-0.1057,-0.1102,-0.1143,-0.112,-0.1116,-0.1117,-0.1125,-0.1115,-0.1114,-0.1114,-0.1114,-0.1113,-0.1113,-0.0919,-0.0935,-0.0904,-0.0913,-0.0911,-0.0913,-0.0953,-0.0952,-0.0962,-0.0997,-0.0997,-0.1049,-0.1211,-0.125,-0.1106,-0.1107,-0.1108,-0.1109,-0.1109,-0.0724,-0.0777,-0.0729,-0.0726,-0.0743,-0.0723,-0.0783,-0.0777,-0.0783,-0.0767,-0.0825,-0.0937,-0.0965,-0.098,-0.1013,-0.0815,-0.0815,-0.0815,-0.0815,-0.0605,-0.0625,-0.0588,-0.0581,-0.0581,-0.063,-0.0576,-0.0608,-0.0648,-0.0655,-0.069,-0.0738,-0.0752,-0.0772,-0.0791,-0.0823,-0.0581,-0.0581,-0.0581,-0.0488,-0.0511,-0.0455,-0.0497,-0.0514,-0.0528,-0.0479,-0.0469,-0.0526,-0.0572,-0.0661,-0.0671,-0.0749,-0.0772,-0.0818,-0.0847,-0.0906,0,0]}]]